Location: Nairn
(57.5833°N, 3.8667°W)
Time: 20:50:56
(UTC+00:00)

Altair - Pass Details

Date: 06 October 2022
Orbit: 1501 x 1682 km, 47.2° (Epoch: 05 December)

Event Time Altitude Azimuth Distance (km) Brightness Sun altitude
Exits shadow 03:21:46 - 178° (S) 3,893 9.3 -24.9°
Reaches altitude 10° 03:22:15 10° 176° (S) 3,796 9.3 -24.9°
Maximum altitude 03:28:32 20° 135° (SE) 3,139 9.2 -24.2°
Drops below altitude 10° 03:34:58 10° 94° (E) 3,896 10.4 -23.4°
Sets 03:39:15 0° 79° (ENE) 4,910 11.4 -22.9°
